Tracking 35275 objects as of 8-Sep-2026
HD Live streaming from Space Station
objects crossing your sky now

FLOCK 4V 11


FLOCK 4V 11 is no longer on orbit
FLOCK 4V 11 is classified as:


NORAD ID: 46285
Int'l Code: 2020-061P
Launch date: September 3, 2020
Source: United States (US)
Launch site: FRENCH GUIANA (FRGUI)
Decay date: 2024-10-30
Your satellite tracking list
Your tracking list is empty




NASA's NSSDC Master Catalog

Two Line Element Set (TLE):
1 46285U 20061P   24296.79268550  .13208424  25505-5  84150-3 0  9996
2 46285  97.3171  14.1252 0009360 245.0927 114.9401 16.41013664229811
Source of the keplerian elements: AFSPC